Keps
Threads by month
- ----- 2025 -----
- February
- January
- ----- 2024 -----
- December
- November
- October
- September
- August
- July
- June
- May
- April
- March
- February
- January
- ----- 2023 -----
- December
- November
- October
- September
- August
- July
- June
- May
- April
- March
- February
- January
- ----- 2022 -----
- December
- November
- October
- September
- August
- July
- June
- May
- April
- March
- February
- January
- ----- 2021 -----
- December
- November
- October
- September
- August
- July
- June
- May
- April
- March
- February
- January
- ----- 2020 -----
- December
- November
- October
- September
- August
- July
- June
- May
- April
- March
- February
- January
- ----- 2019 -----
- December
- November
- October
- September
- August
- July
- June
- May
- April
- March
- February
- January
- ----- 2018 -----
- December
- November
- October
- September
- August
- July
- June
- May
- April
- March
- February
- January
- ----- 2017 -----
- December
- November
- October
- September
- August
- July
- June
- May
- April
- March
- February
- January
- ----- 2016 -----
- December
- November
- October
- September
- August
- July
- June
- May
- April
- March
- February
- January
- ----- 2015 -----
- December
- November
- October
- September
- August
- July
- June
- May
- April
- March
- February
- January
- ----- 2014 -----
- December
- November
- October
- September
- August
- July
- June
- May
- April
- March
- February
- January
- ----- 2013 -----
- December
- November
- October
- September
- August
- July
- June
- May
- April
- March
- February
- January
- ----- 2012 -----
- December
- November
- October
- September
- August
- July
- June
- May
- April
- March
- February
- January
- ----- 2011 -----
- December
- November
- October
- September
- August
- July
- June
- May
- April
- March
- February
- January
- ----- 2010 -----
- December
- November
- October
- September
- August
- July
- June
- May
- April
- March
- February
- January
- ----- 2009 -----
- December
- November
- October
- September
- August
- July
- June
- May
- April
- March
- February
- January
- ----- 2008 -----
- December
- November
- October
- September
- August
- July
- June
- May
- April
- March
- February
- January
- ----- 2007 -----
- December
- November
- October
- September
- August
- July
- June
- May
- April
- March
- February
- January
- ----- 2006 -----
- December
- November
- October
- September
January 2012
- 1 participants
- 9 discussions
SB KEPS @ AMSAT $ORB12027.N
2Line Orbital Elements 12027.AMSAT
HR AMSAT ORBITAL ELEMENTS FOR AMATEUR SATELLITES IN NASA FORMAT
FROM WA5QGD FORT WORTH,TX January 27, 2012
Send SUBSCRIBE KEPS/UNSUBSCRIBE KEPS to majordomo(a)amsat.org only
BID: ORB12027.N
DECODE 2-LINE ELSETS WITH THE FOLLOWING KEY:
1 AAAAAU 00 0 0 BBBBB.BBBBBBBB .CCCCCCCC 00000-0 00000-0 0 DDDZ
2 AAAAA EEE.EEEE FFF.FFFF GGGGGGG HHH.HHHH III.IIII JJ.JJJJJJJJKKKKKZ
KEY: A-CATALOGNUM B-EPOCHTIME C-DECAY D-ELSETNUM E-INCLINATION F-RAAN
G-ECCENTRICITY H-ARGPERIGEE I-MNANOM J-MNMOTION K-ORBITNUM Z-CHECKSUM
TO ALL RADIO AMATEURS BT
AO-07
1 07530U 74089B 12026.85193452 -.00000027 00000-0 10000-3 0 2909
2 07530 101.3979 029.5887 0011814 201.2218 158.8365 12.53587271702216
FO-29
1 24278U 96046B 12025.94422611 -.00000021 00000-0 13671-4 0 07733
2 24278 098.5747 145.4169 0351134 040.2654 322.3934 13.52975710762587
SO-33
1 25509U 98061B 12025.46766172 .00000598 00000-0 10866-3 0 01543
2 25509 031.4344 066.9330 0352734 025.7950 335.9818 14.28659458692085
RS-22
1 27939U 03042A 12026.62623717 .00000717 00000-0 14558-3 0 266
2 27939 097.8222 234.6607 0013566 002.1335 357.9913 14.63881606445020
VO-52
1 28650U 05017B 12026.66917644 .00001736 00000-0 22042-3 0 90
2 28650 097.6152 064.5045 0027196 147.0113 213.2818 14.82641959363858
SO-67
1 35870U 09049F 12026.75874977 .00004956 00000-0 21586-3 0 6244
2 35870 097.2526 067.4931 0001700 003.3150 088.8814 15.22648441130936
HO-68
1 36122U 09072B 12026.70145432 -.00000044 00000-0 00000 0 0 1427
2 36122 100.3840 088.8127 0007772 076.1256 284.0716 13.16292564101645
UO-11
1 14781U 84021B 12025.69139680 .00000836 00000-0 11666-3 0 07761
2 14781 097.9759 086.3442 0009654 133.4985 226.7021 14.80290440498703
AO-16
1 20439U 90005D 12025.85216355 .00000156 00000-0 73877-4 0 03911
2 20439 098.4132 333.3651 0010104 221.7850 138.2557 14.32011188149488
LO-19
1 20442U 90005G 12025.89705607 .00000285 00000-0 12114-3 0 3056
2 20442 098.3789 336.9271 0011358 212.3803 147.6679 14.32232658149679
AO-27
1 22825U 93061C 12025.89164971 .00000225 00000-0 10530-3 0 164
2 22825 098.5593 331.0562 0008212 346.5886 013.5074 14.29424716956003
IO-26
1 22826U 93061D 12025.84979102 .00000129 00000-0 67082-4 0 07738
2 22826 098.5534 331.4240 0008883 340.8320 019.2523 14.29694345956122
GO-32
1 25397U 98043D 12026.75678017 .00000097 00000-0 60953-4 0 6880
2 25397 098.3477 012.5940 0001326 022.5674 337.5538 14.23254833703767
NO-44
1 26931U 01043C 12025.77991182 .00000281 00000-0 14152-3 0 09563
2 26931 067.0536 129.9331 0005881 283.2579 076.7868 14.29755050538743
SO-50
1 27607U 02058C 12025.50880642 .00001192 00000-0 19980-3 0 06721
2 27607 064.5582 011.9003 0085021 276.5362 082.6057 14.72183926488815
CO-55
1 27844U 03031E 12026.61664021 .00000284 00000-0 15138-3 0 2964
2 27844 098.7046 037.0654 0009090 276.5229 083.4927 14.20952440444643
CO-57
1 27848U 03031J 12025.53943337 .00000240 00000-0 13164-3 0 2440
2 27848 098.7126 035.2752 0008946 284.8893 075.1292 14.20713012444433
AO-51
1 28375U 04025K 12026.86594149 .00000143 00000-0 55207-4 0 1783
2 28375 098.1265 358.9168 0084225 111.5430 249.4759 14.40886980398271
CP3
1 31129U 07012N 12026.60000097 .00000839 00000-0 20109-3 0 782
2 31129 097.8870 042.7692 0101119 206.0231 153.5837 14.52868244253279
CO-65
1 32785U 08021C 12025.64542421 .00001432 00000-0 18389-3 0 02146
2 32785 097.8204 089.9948 0014937 166.4592 193.7004 14.82640500202492
PRISM
1 33493U 09002B 12026.80803514 .00003065 00000-0 38180-3 0 3668
2 33493 098.1487 164.2492 0019858 040.9534 319.3203 14.83111153162643
SOHLA-1
1 33496U 09002E 12025.81282034 .00000562 00000-0 10222-3 0 06400
2 33496 098.0923 138.6300 0007261 130.2439 229.9403 14.69851505161187
TISAT-1
1 36799U 10035E 12026.85057843 .00002089 00000-0 27334-3 0 6408
2 36799 098.0777 102.1212 0013862 274.2492 085.7165 14.81458422 83410
STUDSAT
1 36801U 10035G 12026.22490391 .00005507 00000-0 68420-3 0 3273
2 36801 098.0829 101.6801 0012391 262.7350 097.2593 14.82944357 83322
FO-69
1 37227U 0 12018.13838078 .00000422 00000-0 67820-4 0 00795
2 37227 071.9715 285.2240 0018772 243.3066 116.6174 14.76896760013795
FO-70
1 37380U 0 12018.38985263 .00000483 00000-0 76901-4 0 00833
2 37380 071.9747 285.0401 0019270 240.0754 119.8494 14.76656006013729
NOAA-10
1 16969U 86073A 12025.96535746 .00000174 00000-0 88401-4 0 07984
2 16969 098.5978 057.4599 0011518 295.5236 064.4755 14.27523632319432
NOAA-11
1 19531U 88089A 12025.80952574 -.00000105 00000-0 -31750-4 0 07932
2 19531 098.7404 113.9536 0010420 275.4302 084.5691 14.14949557204234
NOAA-12
1 21263U 91032A 12025.92752494 .00000067 00000-0 47100-4 0 02926
2 21263 098.7387 048.1917 0012893 257.8438 102.1297 14.25474010076146
MET-3/5
1 21655U 91056A 12026.63284473 .00000051 00000-0 10000-3 0 3206
2 21655 082.5548 252.8952 0012867 323.5625 036.4580 13.17035405983135
MET-2/21
1 22782U 93055A 12025.83436603 .00000092 00000-0 69973-4 0 03214
2 22782 082.5504 146.2478 0021976 191.2338 168.8341 13.83675994929344
OKEAN-4
1 23317U 94066A 12026.86426026 .00001365 00000-0 16221-3 0 7871
2 23317 082.5404 164.2199 0023188 100.3899 259.9931 14.83552659933703
NOAA-14
1 23455U 94089A 12025.95721295 .00000051 00000-0 50085-4 0 07771
2 23455 098.8373 111.2203 0009842 011.6761 348.4635 14.13872549880557
NOAA-15
1 25338U 98030A 12025.82281680 .00000142 00000-0 79485-4 0 01149
2 25338 098.6772 014.1804 0010985 161.0734 199.0823 14.25023248712435
RESURS
1 25394U 98043A 12026.86225053 .00000065 00000-0 45629-4 0 9990
2 25394 098.3089 022.6692 0001032 339.8219 020.2922 14.24271019704144
FENGYUN1
1 25730U 99025A 12025.88064419 .00001028 00000-0 61522-3 0 05280
2 25730 098.8347 347.4627 0021442 052.0559 308.2545 14.09180177654426
OKEAN-0
1 25860U 99039A 12025.97185206 .00000555 00000-0 91708-4 0 05427
2 25860 097.9150 351.7201 0001340 043.5548 316.5765 14.74065461673478
NOAA-16
1 26536U 00055A 12025.90105407 -.00000174 00000-0 -68818-4 0 05982
2 26536 099.1153 065.6827 0011288 125.6183 234.6017 14.12697670584803
NOAA-17
1 27453U 02032A 12025.72391704 .00000050 00000-0 39381-4 0 05754
2 27453 098.3533 059.9028 0011197 214.0139 146.0318 14.24386107498332
NOAA-18
1 28654U 05018A 12025.74758509 .00000001 00000-0 25780-4 0 00510
2 28654 099.0277 342.7873 0014063 195.6917 164.3823 14.11594838344324
NOAA-19
1 33591U 09005A 12025.72338195 .00000244 00000-0 15893-3 0 02401
2 33591 098.8520 327.3939 0014850 067.7938 292.4807 14.11285542152776
HUBBLE
1 20580U 90037B 12026.22940686 .00002061 00000-0 14050-3 0 9309
2 20580 028.4705 358.8017 0003110 335.4313 024.6203 15.02133642993210
ISS
1 25544U 98067A 12026.80971648 .00022510 00000-0 28529-3 0 8958
2 25544 051.6430 116.2580 0021930 327.1352 128.5455 15.59095309755814
CO-58
1 28895U 05043F 12025.83215204 .00001027 00000-0 22081-3 0 00840
2 28895 097.9372 258.2410 0016771 241.0415 118.9086 14.60460565332730
FALCON
1 30776U 07006E 12026.55291855 .00004227 00000-0 28310-3 0 2688
2 30776 035.4330 067.3189 0002077 228.6806 131.3732 15.06479606268724
MAST
1 31126U 07012K 12025.95516102 .00000689 00000-0 16449-3 0 03727
2 31126 097.8806 045.4100 0093518 196.5595 163.2560 14.54017892253456
CAPE1
1 31130U 07012P 12026.55727340 .00000820 00000-0 19719-3 0 3794
2 31130 097.8855 042.4636 0101613 206.8386 152.7539 14.52749992253062
COMPASS
1 32787U 08021E 12025.69261347 .00003189 00000-0 39380-3 0 02064
2 32787 097.8217 090.1343 0015750 166.5962 193.5708 14.83445773202537
